This is the latest recevied weather packets stored in our database for station/object K1RFS. If no packets are shown the sender has not sent any weather packets the latest 10 day(s).
| Time | Temp. | Humidity | Pressure | Rain* | Wind** | Luminosity | Snow |
|---|---|---|---|---|---|---|---|
| 1787426252 | 33.33° C | 31% | 1007.3 hPa | 0 mm | - | 631 W/m² | - |
| 1787425948 | 32.78° C | 32% | 1007.2 hPa | 0 mm | - | 635 W/m² | - |
| 1787425644 | 33.33° C | 30% | 1007.6 hPa | 0 mm | - | 172 W/m² | - |
| 1787425340 | 32.78° C | 31% | 1007.6 hPa | 0 mm | - | 636 W/m² | - |
| 1787425039 | 32.78° C | 32% | 1007.8 hPa | 0 mm | - | 627 W/m² | - |
| 1787424739 | 32.78° C | 32% | 1007.8 hPa | 0 mm | - | 623 W/m² | - |
| 1787424434 | 32.22° C | 33% | 1007.8 hPa | 0 mm | - | 618 W/m² | - |
| 1787424129 | 32.78° C | 33% | 1008 hPa | 0 mm | - | 610 W/m² | - |
| 1787423825 | 32.78° C | 32% | 1007.9 hPa | 0 mm | - | 607 W/m² | - |
| 1787423522 | 31.67° C | 34% | 1008.1 hPa | 0 mm | - | 603 W/m² | - |
| 1787423217 | 31.67° C | 35% | 1008.2 hPa | 0 mm | - | 598 W/m² | - |
| 1787422913 | 31.11° C | 35% | 1008.5 hPa | 0 mm | - | 593 W/m² | - |
| 1787422608 | 30.56° C | 35% | 1008.5 hPa | 0 mm | - | 587 W/m² | - |
| 1787422304 | 30.56° C | 36% | 1008.5 hPa | 0 mm | - | 581 W/m² | - |
| 1787422000 | 30.56° C | 37% | 1008.6 hPa | 0 mm | - | 573 W/m² | - |
| 1787421696 | 30.56° C | 37% | 1008.6 hPa | 0 mm | - | 566 W/m² | - |
| 1787421392 | 30° C | 38% | 1008.8 hPa | 0 mm | - | 561 W/m² | - |
| 1787421087 | 29.44° C | 40% | 1008.8 hPa | 0 mm | - | 539 W/m² | - |
| 1787420782 | 29.44° C | 40% | 1008.9 hPa | 0 mm | - | 38 W/m² | - |
| 1787420479 | 28.89° C | 40% | 1009 hPa | 0 mm | - | 37 W/m² | - |
| 1787420175 | 28.89° C | 42% | 1009.2 hPa | 0 mm | - | 37 W/m² | - |
| 1787419871 | 28.89° C | 43% | 1009 hPa | 0 mm | - | 37 W/m² | - |
| 1787419566 | 28.89° C | 43% | 1009 hPa | 0 mm | - | 36 W/m² | - |
| 1787419261 | 28.33° C | 43% | 1009 hPa | 0 mm | - | 36 W/m² | - |
| 1787418957 | 28.33° C | 43% | 1009 hPa | 0 mm | - | 36 W/m² | - |
* Rain latest hour (hover to see other rain measurements)
** Current wind speed in m/s (hover to see current wind gust speed)